This is the latest recevied weather packets stored in our database for station/object OE6ATD-13. If no packets are shown the sender has not sent any weather packets the latest 10 day(s).
| Time | Temp. | Humidity | Pressure | Rain* | Wind** | Luminosity | Snow |
|---|---|---|---|---|---|---|---|
| 1788244227 | 18.33° C | 99% | 1021.1 hPa | 0 mm | - | 126 W/m² | - |
| 1788243623 | 18.33° C | 99% | 1021 hPa | 0 mm | - | 285 W/m² | - |
| 1788243019 | 16.67° C | 99% | 1021 hPa | 0 mm | - | 81 W/m² | - |
| 1788242430 | 16.11° C | 99% | 1020.9 hPa | 0 mm | - | 74 W/m² | - |
| 1788241826 | 16.11° C | 99% | 1020.8 hPa | 0 mm | - | 68 W/m² | - |
| 1788241221 | 16.11° C | 99% | 1020.6 hPa | 0 mm | - | 58 W/m² | - |
| 1788240617 | 16.11° C | 99% | 1020.6 hPa | 0 mm | - | 51 W/m² | - |
| 1788240028 | 16.11° C | 99% | 1020.4 hPa | 0 mm | - | 46 W/m² | - |
| 1788239423 | 15.56° C | 99% | 1020.5 hPa | 0 mm | - | 42 W/m² | - |
| 1788238820 | 15.56° C | 99% | 1020.4 hPa | 0 mm | - | 35 W/m² | - |
| 1788238216 | 15.56° C | 99% | 1020.3 hPa | 0 mm | - | 19 W/m² | - |
| 1788237619 | 15.56° C | 99% | 1020.3 hPa | 0 mm | - | 11 W/m² | - |
| 1788237030 | 15.56° C | 99% | 1020.1 hPa | 0 mm | - | 5 W/m² | - |
| 1788236425 | 15.56° C | 99% | 1020.2 hPa | 0 mm | - | 1 W/m² | - |
| 1788235821 | 15.56° C | 99% | 1019.8 hPa | 0 mm | - | 0 W/m² | - |
| 1788235217 | 15.56° C | 99% | 1019.9 hPa | 0 mm | - | 0 W/m² | - |
| 1788234628 | 15.56° C | 99% | 1019.9 hPa | 0 mm | - | 0 W/m² | - |
| 1788234024 | 15.56° C | 99% | 1019.5 hPa | 0 mm | - | 0 W/m² | - |
| 1788233419 | 15.56° C | 99% | 1019.5 hPa | 0 mm | - | 0 W/m² | - |
| 1788232815 | 15.56° C | 99% | 1019.5 hPa | 0 mm | - | 0 W/m² | - |
| 1788232226 | 15.56° C | 99% | 1019.5 hPa | 0 mm | - | 0 W/m² | - |
| 1788231622 | 15.56° C | 99% | 1019.8 hPa | 0 mm | - | 0 W/m² | - |
| 1788231018 | 15.56° C | 99% | 1019.9 hPa | 0 mm | - | 0 W/m² | - |
| 1788230429 | 15.56° C | 99% | 1019.9 hPa | 0 mm | - | 0 W/m² | - |
| 1788229825 | 15.56° C | 99% | 1019.7 hPa | 0 mm | - | 0 W/m² | - |
* Rain latest hour (hover to see other rain measurements)
** Current wind speed in m/s (hover to see current wind gust speed)